Location: Gdynia
(54.5193°N, 18.5395°E)
Time: 23:38:43
(UTC+01:00)

ISS - Pass Details

Date: 30 January 2019
Orbit: 403 x 411 km, 51.6° (Epoch: 20 February)

Event Time Altitude Azimuth Distance (km) Brightness Sun altitude
Rises 19:01:44 0° 265° (W) 2,339 1.5 -23.3°
Reaches altitude 10° 19:03:51 10° 261° (W) 1,479 0.1 -23.6°
Enters shadow 19:06:01 34° 239° (WSW) 697 -2.3 -23.9°
